Location: *
(28.3744°N, 81.5492°W)
Time: 03:01:28
(UTC+00:00)

BREEZE M DEB (TANK) - Pass Details

Date: 15 June 2025
Orbit: 289 x 13839 km, 49.5° (Epoch: 11 July)

Event Time Altitude Azimuth Distance (km) Brightness Sun altitude
Exits shadow 09:12:04 16° 246° (WSW) 4,955 6.5 -15.1°
Maximum altitude 09:21:27 42° 310° (NW) 1,547 4.4 -13.4°
Drops below altitude 10° 09:25:32 10° 24° (NNE) 2,008 6.2 -12.7°
Sets 09:27:00 0° 33° (NNE) 2,583 7.2 -12.4°
